#timestamp,LO_Frequency,Hit,StdDev 
1456941615.8,286046996.2,N
1456941635.6,286046995.0,N
1456941655.5,286046993.5,N
1456941675.3,286046994.2,N
1456941695.1,286046992.4,N
1456941715.9,286046990.2,Y
1456941735.7,286046996.0,P
1456941755.5,286046997.6,P
1456941775.3,286046993.1,P
1456941795.2,286046991.7,Y
1456941815.0,286046995.5,P
1456941815.9,286046995.5,P
1456941835.8,286046995.8,P
1456941855.6,286046993.6,Y
1456941875.4,286046996.5,P
1456941895.3,286046999.6,N
1456941915.1,286046999.0,N
1456941916.0,286046999.0,N
1456941935.8,286046996.8,N
1456941955.7,286046999.3,N
1456941975.5,286047000.2,N
1456941995.3,286047001.6,N
1456942015.1,286047001.0,N
1456942035.9,286046996.9,N
1456942055.7,286046995.3,N
1456942075.5,286046996.1,N
1456942095.4,286046993.4,Y
1456942115.2,286046998.9,P
1456942135.0,286047000.3,N
1456942135.9,286047000.3,N
1456942155.8,286047000.1,N
1456942175.6,286047000.8,N
1456942195.4,286046998.1,N
1456942215.3,286046999.7,N
1456942235.1,286046998.1,N
1456942236.0,286046998.1,N
1456942255.8,286046998.4,N
1456942275.7,286046999.5,N
1456942295.5,286046996.7,Y
1456942315.3,286046998.5,P
1456942335.2,286046998.7,P
1456942355.9,286046997.5,P
1456942375.7,286046996.7,Y
1456942395.6,286046999.0,P
1456942415.4,286046999.1,P
1456942435.2,286046999.5,N
1456942455.1,286046997.4,Y
1456942456.0,286046997.4,P
1456942475.8,286046998.5,N
1456942495.6,286047000.6,N
1456942515.5,286047000.1,N
1456942535.3,286046999.3,N
1456942555.1,286046995.0,Y
1456942575.9,286046996.8,P
1456942595.7,286046996.5,P
1456942615.5,286046999.4,N
1456942635.4,286047000.8,N
1456942655.2,286046998.8,N
1456942675.0,286046999.0,N
1456942675.9,286046999.0,N
1456942695.8,286046999.4,N
1456942715.6,286047000.3,N
1456942735.4,286047002.6,N
1456942755.3,286047000.5,N
1456942775.1,286047000.5,N
1456942776.0,286047000.5,N
1456942795.8,286047001.1,N
1456942815.6,286047001.9,N
1456942835.5,286047003.9,N
1456942855.3,286047001.5,N
1456942875.1,286047003.7,N
1456942895.9,286047002.8,N
1456942915.7,286046998.6,N
1456942935.5,286047001.1,N
1456942955.4,286047001.0,N
1456942975.2,286046998.9,N
1456942995.0,286046999.1,N
1456942995.9,286046999.1,N
1456943015.8,286046998.3,N
1456943035.6,286046999.2,N
1456943055.4,286046996.5,N
1456943075.3,286046998.0,N
1456943095.1,286046998.4,N
1456943096.0,286046998.4,N
1456943115.8,286046999.1,N
1456943135.7,286046996.6,N
1456943155.5,286046997.4,N
1456943175.3,286046999.2,N
1456943195.1,286046997.7,N
1456943215.9,286046999.3,N
1456943235.7,286046999.0,N
1456943255.5,286046999.3,N
1456943275.4,286046996.5,N
1456943295.2,286046998.6,N
1456943315.0,286046999.2,N
1456943315.9,286046999.2,N
1456943335.8,286046996.9,N
1456943355.6,286047000.6,N
1456943375.4,286046998.5,N
1456943395.3,286046997.5,N
1456943415.1,286046995.9,N
1456943416.0,286046995.9,N
1456943435.8,286046996.0,Y
1456943455.7,286046995.6,P
1456943475.5,286047001.1,N
1456943495.3,286047001.1,N
1456943515.2,286047001.1,N
1456943535.9,286046998.5,N
1456943555.7,286046997.9,N
1456943575.6,286046997.2,N
1456943595.4,286046996.5,N
1456943615.2,286047001.1,N
1456943635.1,286046995.0,N
1456943636.0,286046995.0,N
1456943655.8,286046996.3,N
1456943675.6,286046998.1,N
1456943695.4,286047004.0,N
1456943715.3,286047002.7,N
1456943735.1,286047002.5,N
1456943755.8,286047001.9,N
1456943775.7,286047001.0,N
1456943795.5,286047001.4,N
1456943815.3,286047004.3,N
1456943835.2,286047004.0,N
1456943855.9,286047009.2,Y
1456943875.7,286047007.2,P
1456943895.6,286047003.5,N
1456943915.4,286047002.2,N
1456943935.2,286047004.3,N
1456943955.1,286047002.8,N
1456943956.0,286047002.8,N
1456943975.8,286047001.2,N
1456943995.6,286047000.4,N
1456944015.5,286047000.3,N
1456944035.3,286046999.8,N
1456944055.1,286047000.5,N
1456944075.8,286046998.1,N
1456944095.7,286046998.6,N
1456944115.5,286046999.2,N
1456944135.3,286046996.5,N
1456944155.2,286047000.4,N
1456944175.0,286047002.5,N
1456944175.9,286047002.5,N
1456944195.7,286047005.7,N
1456944215.6,286047006.4,N
1456944235.4,286047007.6,N
1456944255.2,286047007.5,N
1456944275.1,286047006.5,N
1456944276.0,286047006.5,N
1456944295.8,286047004.8,N
1456944315.6,286047003.0,N
1456944335.5,286047003.8,N
1456944355.3,286047001.7,N
1456944375.1,286047005.9,N
1456944395.9,286047003.4,N
1456944415.7,286047003.4,N
1456944435.5,286047002.9,N
1456944455.3,286047004.5,N
1456944475.2,286047005.3,N
1456944495.0,286047005.8,N
1456944495.9,286047005.8,N
1456944515.7,286047005.8,N
1456944535.6,286047003.5,N
1456944555.4,286047004.5,N
1456944575.2,286047005.7,N
1456944595.1,286047005.3,N
1456944596.0,286047005.3,N
1456944615.8,286047005.3,N
1456944635.6,286047000.0,N
1456944655.5,286047003.8,N
1456944675.3,286047003.6,N
1456944695.1,286047002.9,N
1456944715.9,286047005.9,Y
1456944735.7,286046999.9,P
1456944755.5,286047000.8,N
1456944775.4,286046998.2,N
1456944795.2,286046998.4,N
1456944815.0,286047002.8,N
1456944815.9,286047002.8,N
1456944835.8,286046999.7,N
1456944855.6,286047000.1,N
1456944875.4,286047004.1,N
1456944895.3,286047001.9,N
1456944915.1,286047003.5,N
1456944916.0,286047003.5,N
1456944935.8,286047005.7,N
1456944955.6,286047003.8,N
1456944975.5,286047001.4,N
1456944995.3,286047001.6,N
1456945015.1,286047001.4,N
1456945035.9,286046999.4,N
1456945055.7,286046998.6,N
1456945075.5,286046997.9,N
1456945095.4,286046996.3,N
1456945115.2,286046996.2,N
1456945135.0,286046997.3,N
1456945135.9,286046997.3,N
1456945155.8,286046995.1,N
1456945175.6,286046995.9,N
1456945195.4,286046994.8,N
